User: anonymous   Login
Location: Zagreb
(45.8000°N, 16.0000°E)
Time: 03:01:18
(UTC+02:00)
Language:

Vanguard 3 - Orbit

View from above orbital plane
View from above orbital plane
View from above satellite
View from above satellite

Ground track
Ground track

The orbit data is extracted from the following two-line orbital elements,

1 00020U 59007A   22219.20363444  .00000087  00000-0  42458-4 0  9997
2 00020  33.3424 279.7405 1664435  89.6824 289.3465 11.56243557320969
Epoch (UTC): 07 August 2022 04:53:14
Eccentricity: 0.1664435
inclination: 33.3424°
perigee height: 508 km
apogee height: 3258 km
right ascension of ascending node: 279.7405°
argument of perigee: 89.6824°
revolutions per day: 11.56243557
mean anomaly at epoch: 289.3465°
orbit number at epoch: 32096

The dashed part of the orbit path shows where the satellite is in the earth's shadow,  

DLR